Back to catalog

STARLINK-34455

AliveCommunicationsVLEO
NORAD 65497·PAYLOAD·🇺🇸 United States

Launched Sep 5, 2025 from Cape Canaveral Space Force Station

Loading…

Next Passes (next 24 hours)

TLE

FreshSource: CelesTrak SupGP

Epoch: Sep 14, 2026, 15:14 UTC

1 65497C 25198F   26257.63520833  .00007281  00000+0  21511-3 0  2575
2 65497  53.1572 109.1336 0001220  97.8885  65.7430 15.34388467    14

Track STARLINK-34455 in real time with AllMySat

Download on the App Store